DW8913 Weather Reports


time (UTC)temp
C
wind
direction
speed
KPH
gust
KPH
rain 1hr
cm
rain 24hr
cm
rain mn
cm
humidity
%
barometer
mb
20260902021545 27 30 3.2 8.0 0.00 0.00 0.00 85 1015.2
20260902020032 27 173 0.0 4.8 0.00 0.00 0.00 84 1013.4
20260902014608 27 167 0.0 6.4 0.00 0.00 0.00 84 1013.3
20260902013033 27 158 0.0 4.8 0.00 0.00 0.00 84 1012.6
20260902011608 27 117 0.0 4.8 0.00 0.00 0.00 82 1012.8
20260902010038 27 150 1.6 6.4 0.00 0.00 0.00 83 1012.3
20260902004514 26 142 0.0 3.2 0.00 0.00 0.00 85 1012.4
20260902003055 27 161 0.0 8.0 0.00 0.00 0.00 85 1012.6
20260902001526 27 146 0.0 0.0 0.00 0.00 0.00 84 1012.5
20260902000108 27 147 0.0 4.8 0.00 0.00 0.00 85 1012.4
20260901234534 27 71 0.0 4.8 0.00 0.00 0.00 84 1012.5
20260901233112 27 171 0.0 3.2 0.00 0.00 0.00 81 1012.8
20260901231547 27 127 1.6 6.4 0.00 0.00 0.00 80 1012.8
20260901230020 27 144 0.0 4.8 0.00 0.00 0.00 84 1012.8
20260901224557 27 131 1.6 11.3 0.00 0.00 0.00 85 1012.7
20260901223041 27 130 1.6 4.8 0.00 0.00 0.00 83 1012.8
20260901221615 28 78 1.6 6.4 0.00 0.00 0.00 83 1012.9
20260901220048 28 138 3.2 8.0 0.00 0.00 0.00 83 1013.1
20260901214505 28 99 3.2 9.7 0.00 0.00 0.00 82 1013.0
20260901213043 28 65 1.6 8.0 0.00 0.00 0.00 82 1013.2
20260901211514 28 186 1.6 9.7 0.00 0.00 0.00 82 1013.2
20260901210111 28 98 1.6 9.7 0.00 0.00 0.00 81 1013.3
20260901204538 28 113 4.8 12.9 0.00 0.00 0.00 81 1013.2
20260901203012 28 65 3.2 12.9 0.00 0.00 0.00 80 1013.2
20260901201546 28 169 4.8 12.9 0.00 0.00 0.00 79 1013.1
20260901200014 29 106 3.2 12.9 0.00 0.00 0.00 76 1013.6
20260901194603 30 158 1.6 8.0 0.00 0.00 0.00 75 1013.9
20260901193019 30 136 0.0 11.3 0.00 0.00 0.00 75 1013.7
20260901191606 30 166 3.2 8.0 0.00 0.00 0.00 73 1013.7
20260901190042 31 128 0.0 4.8 0.00 0.00 0.00 71 1013.8
20260901184607 31 87 0.0 6.4 0.00 0.00 0.00 68 1014.0
20260901183040 31 51 0.0 4.8 0.00 0.00 0.00 68 1014.1
20260901181511 31 55 0.0 8.0 0.00 0.00 0.00 68 1014.3
20260901180055 31 20 0.0 3.2 0.00 0.00 0.00 67 1014.3
20260901174531 31 251 0.0 3.2 0.00 0.00 0.00 64 1014.6
20260901173105 33 55 0.0 6.4 0.00 0.00 0.00 61 1014.6
20260901171533 33 73 1.6 6.4 0.00 0.00 0.00 59 1014.6
20260901170005 33 180 1.6 9.7 0.00 0.00 0.00 63 1014.7
20260901164548 32 76 1.6 4.8 0.00 0.00 0.00 65 1014.8
20260901163024 32 221 1.6 6.4 0.00 0.00 0.00 65 1015.0
20260901161542 31 179 0.0 3.2 0.00 0.00 0.00 68 1015.1
20260901160016 30 162 1.6 6.4 0.00 0.00 0.00 68 1015.2
20260901154556 30 217 0.0 8.0 0.00 0.00 0.00 67 1015.2
20260901153034 31 158 0.0 6.4 0.00 0.00 0.00 64 1015.4
20260901151611 31 172 0.0 6.4 0.00 0.00 0.00 62 1015.3
20260901150044 31 123 0.0 8.0 0.00 0.00 0.00 64 1015.2
20260901144511 32 58 1.6 11.3 0.00 0.00 0.00 61 1015.3
20260901143117 31 186 3.2 9.7 0.00 0.00 0.00 64 1015.5
20260901141525 31 165 0.0 4.8 0.00 0.00 0.00 67 1015.4
20260901140112 30 172 1.6 6.4 0.00 0.00 0.00 70 1015.6
20260901134541 30 92 0.0 3.2 0.00 0.00 0.00 73 1015.7
20260901133010 30 78 0.0 6.4 0.00 0.00 0.00 75 1015.7
20260901131549 28 75 1.6 6.4 0.00 0.00 0.00 78 1015.8
20260901130017 28 158 0.0 4.8 0.00 0.00 0.00 82 1016.0
20260901124556 27 255 0.0 4.8 0.00 0.00 0.00 87 1016.1
20260901123024 26 57 0.0 1.6 0.00 0.00 0.00 91 1016.1
20260901121602 25 178 0.0 3.2 0.00 0.00 0.00 93 1016.3
20260901120027 25 159 0.0 4.8 0.00 0.00 0.00 94 1016.0
20260901114504 24 162 0.0 0.0 0.00 0.00 0.00 94 1016.2
20260901113055 24 26 0.0 0.0 0.00 0.00 0.00 94 1016.3
20260901111524 24 145 0.0 0.0 0.00 0.00 0.00 94 1016.2
20260901110107 23 122 0.0 0.0 0.00 0.00 0.00 94 1016.1
20260901104544 23 111 0.0 0.0 0.00 0.00 0.00 94 1015.8
20260901103005 23 134 0.0 3.2 0.00 0.00 0.00 93 1015.6
20260901101553 23 155 0.0 3.2 0.00 0.00 0.00 93 1015.7
20260901100021 23 162 0.0 0.0 0.00 0.00 0.00 93 1015.6
20260901094602 23 162 0.0 0.0 0.00 0.00 0.00 93 1015.7
20260901093036 23 169 0.0 0.0 0.00 0.00 0.00 93 1015.9
20260901091504 23 167 0.0 3.2 0.00 0.00 0.00 93 1015.8
20260901090043 23 158 0.0 3.2 0.00 0.00 0.00 93 1015.9
20260901084513 23 181 0.0 3.2 0.00 0.03 0.00 92 1015.9
20260901083054 23 155 0.0 3.2 0.00 0.03 0.00 92 1016.1
20260901081523 23 143 0.0 3.2 0.00 0.03 0.00 93 1016.0
20260901080106 23 158 0.0 4.8 0.00 0.03 0.00 92 1016.1
20260901074545 23 155 0.0 0.0 0.00 0.38 0.00 92 1016.2
20260901073001 23 163 0.0 0.0 0.00 0.38 0.00 92 1016.4
20260901071549 23 163 0.0 1.6 0.00 0.38 0.00 92 1016.3
20260901070015 23 152 0.0 3.2 0.00 0.38 0.00 92 1016.2
20260901064555 23 180 0.0 1.6 0.00 1.70 0.00 91 1016.4
20260901063018 23 157 0.0 4.8 0.00 1.70 0.00 91 1016.5
20260901061602 23 157 0.0 3.2 0.00 1.70 0.00 91 1016.6
20260901060027 23 156 0.0 0.0 0.00 1.70 0.00 90 1016.8
20260901054607 23 174 0.0 3.2 0.00 1.70 0.00 90 1017.1
20260901053040 23 173 0.0 1.6 0.00 1.70 0.00 90 1017.3
20260901051506 23 150 0.0 0.0 0.00 1.70 0.00 90 1017.3
20260901050043 23 154 0.0 1.6 0.00 1.70 0.00 90 1017.4
20260901044510 24 159 0.0 3.2 0.00 1.70 0.00 90 1017.4
20260901043108 24 179 0.0 4.8 0.00 1.70 0.00 90 1017.4
20260901041524 23 162 1.6 6.4 0.00 1.70 0.00 90 1017.5
20260901040137 23 187 0.0 3.2 0.00 1.70 0.00 90 1017.2
20260901034548 23 164 0.0 3.2 0.00 1.70 1.70 90 1017.2
20260901033014 23 163 0.0 4.8 0.00 1.70 1.70 89 1017.1
20260901031625 23 122 0.0 3.2 0.00 1.70 1.70 89 1017.2
20260901030043 23 156 1.6 9.7 0.00 1.70 1.70 89 1017.4
20260901024623 23 179 0.0 6.4 0.00 1.70 1.70 89 1017.5
20260901023044 23 211 0.0 4.8 0.00 1.70 1.70 89 1017.6